[[{"header":{"parameterUnit":"m.s-1","parameterCategory":1,"la1":30.2991,"la2":30.254,"lo1":-89.0895,"lo2":-89.0444,"dy":0.0017,"dx":0.0017,"nx":28,"ny":28,"refTime":"2024-03-01T03:00:00:Z","depth":0,"parameterNumber":2,"parameterNumberName":"U-component_of_WINDS"},"data":[0,0,0,0,0,0,0,0,0,0,0,0,0,0,0,0,0,0,0,0,0,0,0,0,0,0,0,0,0,0,0,0,0,0,0,0,0,0,0,0,0,0,0,0,0,0,0,0,0,0,0,0,0,0,0,0,0,0,0.3268,0.3268,0,0.3239,0.3239,0.3239,0.3194,0.3193,0.3193,0.3192,0.3162,0.3162,0.3162,0,0,0,0,0,0,0,0,0,0,0,0,0,0.3285,0.3285,0.3268,0.3268,0.3268,0.3239,0.3239,0.3239,0.3194,0.3193,0.3192,0.3191,0.3162,0.3162,0.3162,0,0,0,0,0,0,0,0,0,0,0,0,0,0.3269,0.3285,0.3268,0.3242,0.3239,0.324,0.3239,0.3239,0.3194,0.3193,0.3192,0.3191,0.3162,0.3162,0.3162,0.3186,0,0,0.3162,0.3162,0,0,0,0,0,0,0,0,0.327,0.3269,0.3246,0.3244,0.3241,0.3219,0.3234,0.3221,0.3195,0.3212,0.3192,0.319,0.3182,0.3181,0.3178,0.3185,0.3183,0.3162,0.3162,0.3162,0.3162,0,0,0,0,0,0,0,0.3272,0.327,0.3257,0.3246,0.3243,0.3232,0.3228,0.3231,0.3204,0.321,0.3207,0.3204,0.3181,0.3178,0.3177,0.3183,0.3162,0.3162,0.3162,0.3162,0.3207,0.3209,0,0,0,0,0,0,0.3277,0.3271,0.3258,0.3256,0.3253,0.3232,0.3228,0.3227,0.3204,0.3199,0.3205,0.3202,0.3179,0.3177,0.3176,0.3202,0.3162,0.3162,0.3162,0.3206,0.3208,0.3209,0,0,0,0,0,0,0.3277,0.3276,0.3259,0.3263,0.326,0.3233,0.3233,0.3227,0.3225,0.32,0.3195,0.3207,0.3178,0.3176,0.3184,0.32,0.3162,0.3162,0.3205,0.3207,0.3208,0.3254,0,0,0,0,0,0,0.3278,0.3276,0.3285,0.3263,0.326,0.3268,0.3234,0.3228,0.3225,0.322,0.3201,0.3196,0.3176,0.3184,0.3184,0.3199,0.3162,0.3203,0.3206,0.3208,0.3251,0.3258,0.3263,0,0,0,0,0,0.3278,0.3299,0.3286,0.3284,0.327,0.3269,0.3267,0.3243,0.3226,0.3235,0.3219,0.3197,0.3198,0.3185,0.3184,0.32,0.3202,0.3205,0.3208,0.3249,0.3256,0.3263,0,0,0,0,0,0,0.3324,0.3296,0.3281,0.3295,0.3284,0.3261,0.3271,0.3252,0.3247,0.3243,0.3214,0.321,0.3222,0.3212,0.3198,0.3222,0.3197,0.32,0.3228,0.3235,0.3241,0.3244,0.3162,0,0,0,0,0,0.3335,0.3337,0.3312,0.3327,0.3323,0.3298,0.3297,0.3279,0.3268,0.3263,0.3248,0.3237,0.3235,0.3235,0.3231,0.3249,0.3245,0.326,0.3266,0.3271,0.3274,0.3283,0.3289,0.3218,0.3218,0.3218,0,0,0.3359,0.3344,0.3347,0.3336,0.3326,0.3328,0.3295,0.3298,0.33,0.3264,0.3271,0.3259,0.3245,0.3258,0.3263,0.325,0.3292,0.3274,0.3278,0.3279,0.3286,0.3293,0.3299,0.322,0.322,0.3219,0,0,0.3405,0.3393,0.3404,0.3395,0.338,0.3364,0.3366,0.3346,0.3337,0.3343,0.3316,0.3317,0.3314,0.3306,0.3301,0.3342,0.3322,0.3342,0.3373,0.3382,0.3388,0.3392,0.3408,0.3413,0.3345,0.3345,0.3345,0,0.3437,0.3439,0.3413,0.3418,0.3414,0.3381,0.3392,0.3384,0.337,0.3368,0.3353,0.3348,0.3337,0.3348,0.3358,0.3355,0.3357,0.3345,0.3389,0.3393,0.3398,0.3412,0.3418,0.3348,0.3347,0.3347,0.3347,0,0.3479,0.3481,0.3491,0.3478,0.3475,0.3483,0.3458,0.3459,0.3441,0.3426,0.3433,0.3418,0.3411,0.3412,0.3396,0.3421,0.3413,0.3394,0.3368,0.3407,0.342,0.3425,0.3351,0.335,0.335,0.3349,0,0,0.3552,0.3524,0.3528,0.3522,0.3503,0.3504,0.3511,0.3504,0.3505,0.3495,0.35,0.3498,0.348,0.3475,0.3457,0.3465,0.3499,0.3445,0.3444,0.3456,0.3526,0.3542,0.3548,0.3485,0.3486,0.3487,0.3528,0,0.3594,0.3604,0.3581,0.3597,0.3598,0.3567,0.3573,0.3562,0.3548,0.3547,0.3531,0.3531,0.3507,0.3504,0.351,0.3494,0.3513,0.349,0.349,0.3491,0.3496,0.3555,0.3571,0.361,0.3533,0.3533,0.3534,0,0.3644,0.3638,0.3654,0.3634,0.3634,0.3639,0.3631,0.3631,0.3618,0.3607,0.3601,0.358,0.3585,0.356,0.3567,0.3552,0.355,0.3542,0.3543,0.3543,0.3515,0.3557,0.3622,0.3628,0.3542,0.3541,0.354,0,0.3697,0.3692,0.3701,0.3696,0.3673,0.3678,0.3668,0.3654,0.3652,0.3644,0.3642,0.3636,0.3633,0.3628,0.3606,0.3589,0.3615,0.3588,0.3607,0.3607,0.3614,0.3614,0.3681,0.3612,0.3612,0.3612,0.3612,0,0.3747,0.3758,0.3724,0.373,0.3741,0.3714,0.3727,0.3714,0.3701,0.3704,0.3676,0.3679,0.3649,0.3649,0.3631,0.364,0.3638,0.363,0.3625,0.3633,0.3634,0.3632,0.3629,0.3614,0.3613,0.3613,0.3613,0,0.3808,0.3786,0.3793,0.3771,0.3765,0.3775,0.3756,0.376,0.3744,0.3748,0.3747,0.3722,0.372,0.3697,0.369,0.3679,0.3694,0.3684,0.3699,0.3696,0.3716,0.3715,0.3784,0.3792,0.3718,0.3719,0.3719,0,0.3841,0.3849,0.3827,0.3827,0.3819,0.3819,0.3816,0.379,0.3788,0.3773,0.378,0.3775,0.3771,0.3769,0.3751,0.3745,0.3735,0.376,0.3734,0.3742,0.3736,0.3736,0.3737,0.3766,0.3767,0.3767,0.3768,0,0.3903,0.3892,0.3889,0.3882,0.3879,0.3873,0.3864,0.3866,0.3836,0.3836,0.3834,0.383,0.3823,0.382,0.3811,0.3801,0.378,0.3776,0.378,0.3788,0.3797,0.3793,0.3714,0.3775,0.3774,0.3774,0.3773,0.3773,0.3952,0.3957,0.3943,0.394,0.3931,0.3924,0.3927,0.3911,0.3909,0.3902,0.3886,0.3886,0.3873,0.3859,0.3851,0.385,0.3838,0.3844,0.3845,0.3847,0.3852,0.3796,0.3849,0.3848,0.3848,0.3848,0.3848,0,0.4012,0.4002,0.4,0.3989,0.3987,0.3967,0.3956,0.3956,0.3957,0.3946,0.3942,0.394,0.3936,0.3917,0.3911,0.3915,0.3905,0.3914,0.3914,0.3912,0.3863,0.386,0.3922,0.3922,0.3922,0.3922,0.3922,0.3922,0.4044,0.4052,0.4039,0.4043,0.4032,0.4032,0.4028,0.4021,0.4012,0.4011,0.4008,0.3995,0.3981,0.3974,0.397,0.3964,0.3964,0.3976,0.3968,0.3922,0.3915,0.3909,0.3906,0.3976,0.3976,0.4016,0.4017,0.4017]},{"header":{"parameterUnit":"m.s-1","parameterCategory":1,"la1":30.2991,"la2":30.254,"lo1":-89.0895,"lo2":-89.0444,"dy":0.0017,"dx":0.0017,"nx":28,"ny":28,"refTime":"2024-03-01T03:00:00:Z","depth":0,"parameterNumber":3,"parameterNumberName":"V-component_of_WINDS"},"data":[0,0,0,0,0,0,0,0,0,0,0,0,0,0,0,0,0,0,0,0,0,0,0,0,0,0,0,0,0,0,0,0,0,0,0,0,0,0,0,0,0,0,0,0,0,0,0,0,0,0,0,0,0,0,0,0,0,0,1.4412,1.4414,0,1.464,1.4642,1.4645,1.4726,1.4726,1.4725,1.4724,1.4957,1.4964,1.4971,0,0,0,0,0,0,0,0,0,0,0,0,0,1.4046,1.4052,1.4412,1.4414,1.4417,1.4639,1.4642,1.4646,1.4727,1.4726,1.4725,1.4724,1.4955,1.4963,1.4971,0,0,0,0,0,0,0,0,0,0,0,0,0,1.4232,1.4054,1.4411,1.4485,1.4493,1.4639,1.4643,1.4646,1.4727,1.4726,1.4724,1.4723,1.4952,1.4962,1.4972,1.5061,0,0,1.5004,1.5009,0,0,0,0,0,0,0,0,1.4221,1.4245,1.4471,1.448,1.449,1.4653,1.4599,1.4785,1.4727,1.4638,1.4724,1.4723,1.4857,1.4875,1.4921,1.5072,1.5082,1.5005,1.5012,1.5016,1.5019,0,0,0,0,0,0,0,1.4208,1.4236,1.4502,1.4474,1.4486,1.4506,1.4531,1.4635,1.4752,1.4646,1.4652,1.4678,1.4862,1.491,1.4927,1.5085,1.5005,1.5014,1.5021,1.5025,1.5321,1.5323,0,0,0,0,0,0,1.4183,1.4225,1.4495,1.4509,1.435,1.4513,1.4542,1.4602,1.4751,1.4772,1.4679,1.4681,1.4893,1.4914,1.4935,1.5049,1.5016,1.5026,1.5032,1.532,1.5322,1.5323,0,0,0,0,0,0,1.4175,1.4207,1.4485,1.4369,1.4406,1.4521,1.4588,1.4607,1.4656,1.4776,1.4797,1.4707,1.4893,1.492,1.5029,1.5058,1.503,1.504,1.5318,1.532,1.5323,1.5278,0,0,0,0,0,0,1.4164,1.4203,1.4238,1.4369,1.4412,1.4576,1.459,1.4613,1.4674,1.4679,1.4808,1.4828,1.4894,1.5013,1.504,1.5072,1.5048,1.5316,1.5319,1.5322,1.5277,1.5278,1.5279,0,0,0,0,0,1.4151,1.4216,1.424,1.4272,1.4458,1.4577,1.4602,1.4677,1.4676,1.4712,1.4789,1.4824,1.5051,1.5024,1.5054,1.509,1.5314,1.5318,1.5322,1.5277,1.5278,1.5279,0,0,0,0,0,0,1.4086,1.4235,1.4262,1.4372,1.4461,1.4591,1.4639,1.4676,1.4768,1.4768,1.4857,1.4886,1.4988,1.505,1.5017,1.5184,1.5185,1.5194,1.514,1.5142,1.5143,1.5127,1.5057,0,0,0,0,0,1.4085,1.417,1.4295,1.4379,1.4423,1.4523,1.4578,1.4628,1.4724,1.4762,1.4847,1.4939,1.5031,1.509,1.5181,1.5286,1.5315,1.5326,1.5327,1.5327,1.5335,1.5395,1.5401,1.5335,1.5335,1.5335,0,0,1.4083,1.4174,1.4222,1.4369,1.4444,1.453,1.4554,1.4644,1.4709,1.4776,1.4884,1.4949,1.5058,1.5165,1.5216,1.522,1.5359,1.5332,1.5331,1.5339,1.5399,1.5405,1.5411,1.5338,1.5337,1.5337,0,0,1.4123,1.42,1.428,1.4355,1.4468,1.4534,1.4553,1.4677,1.4723,1.4833,1.4885,1.4963,1.512,1.5195,1.5253,1.5321,1.5357,1.5348,1.5354,1.5412,1.5417,1.5422,1.5446,1.5454,1.5355,1.5355,1.5355,0,1.4106,1.4238,1.4316,1.4403,1.4466,1.453,1.4611,1.468,1.4817,1.4859,1.4861,1.5059,1.5136,1.5262,1.5278,1.5323,1.5348,1.5334,1.541,1.5416,1.5421,1.5446,1.5455,1.5353,1.5353,1.5354,1.5354,0,1.4211,1.4301,1.4352,1.4483,1.4551,1.4635,1.4725,1.4785,1.4829,1.4894,1.5005,1.51,1.5212,1.5245,1.5289,1.5377,1.5376,1.5392,1.5395,1.5425,1.5449,1.5459,1.5351,1.5351,1.5352,1.5352,0,0,1.4218,1.4391,1.4408,1.4469,1.4598,1.467,1.4755,1.4865,1.4915,1.5006,1.5081,1.5212,1.5228,1.5294,1.5347,1.5397,1.5445,1.5408,1.5412,1.5412,1.5549,1.5536,1.5545,1.5469,1.5471,1.5473,1.554,0,1.4276,1.4433,1.4506,1.463,1.4715,1.4777,1.4852,1.4939,1.5003,1.5083,1.5153,1.5244,1.5259,1.5299,1.5352,1.5428,1.5474,1.5424,1.5539,1.5542,1.5511,1.5558,1.5546,1.5604,1.555,1.5551,1.5553,0,1.4365,1.4457,1.459,1.471,1.4748,1.4814,1.492,1.4996,1.5096,1.5139,1.5212,1.5262,1.5355,1.535,1.5479,1.5443,1.5495,1.5539,1.5543,1.5558,1.555,1.5575,1.5625,1.5634,1.5568,1.5567,1.5566,0,1.4357,1.4514,1.4615,1.4664,1.4806,1.4851,1.4912,1.5011,1.5072,1.5164,1.5205,1.5306,1.5362,1.5439,1.5516,1.5505,1.5637,1.5639,1.5675,1.5673,1.5701,1.5699,1.5761,1.5732,1.5732,1.5732,1.5732,0,1.4415,1.4494,1.4613,1.4675,1.4765,1.4847,1.4934,1.5,1.5087,1.5163,1.5222,1.5291,1.5387,1.5469,1.5529,1.5626,1.5651,1.5688,1.5703,1.5684,1.5679,1.5719,1.5717,1.5735,1.5734,1.5734,1.5733,0,1.4422,1.4505,1.4619,1.4743,1.4776,1.4837,1.4944,1.5006,1.5072,1.5166,1.5193,1.5296,1.5395,1.5479,1.5608,1.5649,1.575,1.5768,1.5716,1.5725,1.5757,1.5753,1.5849,1.5866,1.5824,1.5824,1.5824,0,1.4454,1.4516,1.4647,1.4702,1.4762,1.485,1.4912,1.4995,1.5058,1.5176,1.5224,1.5327,1.5414,1.5569,1.5655,1.5755,1.5776,1.5802,1.5791,1.5769,1.5777,1.5773,1.578,1.5803,1.5803,1.5803,1.5803,0,1.4501,1.4539,1.4627,1.473,1.4803,1.4887,1.4974,1.5015,1.5114,1.5181,1.5283,1.535,1.5483,1.5584,1.5693,1.5756,1.5796,1.5806,1.582,1.5801,1.5769,1.5787,1.5719,1.5804,1.5804,1.5804,1.5804,1.5803,1.4523,1.4581,1.4683,1.4779,1.4852,1.4931,1.4996,1.5069,1.5156,1.527,1.5314,1.5418,1.5516,1.5666,1.5729,1.5812,1.5817,1.5837,1.5842,1.5846,1.5844,1.5754,1.5832,1.5832,1.5832,1.5832,1.5832,0,1.4574,1.4642,1.473,1.4849,1.4924,1.4955,1.5052,1.5113,1.5204,1.5292,1.5376,1.5493,1.5592,1.5685,1.5789,1.5837,1.5858,1.5861,1.5859,1.5873,1.5833,1.5811,1.5842,1.5842,1.5842,1.5842,1.5842,1.5842,1.461,1.4711,1.476,1.4898,1.4965,1.5068,1.5121,1.5194,1.5265,1.5393,1.5475,1.5535,1.5626,1.5736,1.5828,1.5853,1.5889,1.5887,1.5917,1.5878,1.5876,1.5874,1.5854,1.5894,1.5894,1.5951,1.5952,1.5952]}]]